User: anonymous   Login
Location: 5810 Zion Rd, Cleves, OH 45002, USA
(39.1922°N, 84.7113°W)
Time: 19:26:01
(UTC-05:00)
Language:

S-56A Canister/Altair - Orbit

View from above orbital plane
View from above orbital plane
View from above satellite
View from above satellite

Ground track
Ground track

The orbit data is extracted from the following two-line orbital elements,

1    82U 61004B   19348.80498818 -.00000011 +00000-0 +16492-4 0  9991
2    82 038.8614 165.7938 1175233 267.5819 079.0125 12.26056556785025
Epoch (UTC): 14 December 2019 19:19:10
Eccentricity: 0.1175233
inclination: 38.8614°
perigee height: 632 km
apogee height: 2500 km
right ascension of ascending node: 165.7938°
argument of perigee: 267.5819°
revolutions per day: 12.26056556
mean anomaly at epoch: 79.0125°
orbit number at epoch: 78502

The dashed part of the orbit path shows where the satellite is in the earth's shadow,  

DLR